Flag for Brazil Weather past 2 weeks in Recife, Pernambuco, Brazil

Now
82 °F

Passing clouds.


Feels Like: 86 °F
Forecast: 77 / 82 °F
Wind: 12 mph from Southeast

Location: Recife Aeroporto

Current Time: Jul 26, 2014 at 12:42:02 PM

Latest Report: Jul 26, 2014 at 12:00 PM


Visibility: N/A

Pressure: 30.01 "Hg

Humidity: 66%

Dew point: 70 °F

Location of RecifeLocation

Historic Weather in Recife — Graph

°F

Recife temperature yesterday

Maximum temperature yesterday: 81 °F (at 2:00 PM)
Minimum temperature yesterday: 72 °F (at 6:00 AM)
Average temperature yesterday: 77 °F

Past Weeks' High & Low Weather Summary

 TemperatureHumidityPressure
High84 °F (Jul 12, 10:00 AM)100% (Jul 13, 12:00 AM)30.12 "Hg (Jul 13, 12:00 AM)
Low70 °F (Jul 13, 3:00 AM)66% (Jul 15, 9:00 AM)29.95 "Hg (Jul 11, 3:00 PM)
Average78 °F81%30.04 "Hg
* Reported Jul 11 11:00 AM — Jul 26 11:00 AM, Recife, Weather by CustomWeather, © 2014

Note: Actual official high and low records may vary slightly from our data, if they occured in-between our weather recording intervals... More about our weather records

Advertising

Recife weather history for previous 24 hours

 ConditionsComfort  
Time TempWeatherWind HumidityBarometerVisibility
11:00 AM
Jul 26
82 °FPassing clouds.14 mph70%30.01 "HgN/A
10:00 AM82 °FScattered clouds.14 mph66%30.04 "HgN/A
9:00 AM81 °FScattered clouds.10 mph74%30.04 "HgN/A
8:00 AM81 °FScattered clouds.12 mph74%30.01 "HgN/A
7:00 AM79 °FScattered clouds.10 mph74%29.98 "HgN/A
6:00 AM77 °FScattered clouds.10 mph83%29.98 "HgN/A
5:00 AM77 °FPassing clouds.8 mph83%29.95 "HgN/A
4:00 AM77 °FPassing clouds.6 mph83%29.95 "HgN/A
3:00 AM77 °FPassing clouds.8 mph79%29.95 "HgN/A
2:00 AM77 °FPassing clouds.7 mph83%29.98 "HgN/A
1:00 AM77 °FPassing clouds.8 mph83%29.98 "HgN/A
12:00 AM77 °FPassing clouds.7 mph83%30.01 "HgN/A
11:00 PM
Jul 25
77 °FPassing clouds.10 mph83%30.01 "HgN/A
10:00 PM77 °FPassing clouds.12 mph83%30.01 "HgN/A
9:00 PM79 °FPassing clouds.9 mph79%30.01 "HgN/A
8:00 PM79 °FPassing clouds.10 mph79%30.01 "HgN/A
7:00 PM79 °FPassing clouds.9 mph79%29.98 "HgN/A
6:00 PM79 °FPassing clouds.8 mph84%29.98 "HgN/A
5:00 PM79 °FScattered clouds.9 mph79%29.98 "HgN/A
4:00 PM81 °FScattered clouds.10 mph79%29.95 "HgN/A
3:00 PM79 °FScattered showers. Partly sunny.8 mph84%29.95 "Hg4 mi
2:00 PM81 °FScattered showers. Broken clouds.8 mph84%29.95 "Hg5 mi
1:00 PM79 °FBroken clouds.8 mph89%29.98 "HgN/A
12:00 PM75 °FLight rain. Fog.10 mph94%N/A3 mi
Weather by CustomWeather, © 2014

See weather overviewHow to use our weather pages